Wind_Speed
21 20 18 16 15 12 11 10 8 8 8 9 11 8 7 7 5 4 3 1 1 2
21 20 18 17 15 13 12 10 10 10 9 9 9 9 7 6 7 5 4 3 2 2
21 20 19 18 17 15 12 11 9 9 9 10 9 10 8 7 7 7 4 3 4 3
20 20 19 19 20 17 13 11 8 10 8 8 9 9 7 8 8 6 5 4 4 4
19 18 19 20 20 18 17 13 11 12 9 8 9 8 9 11 8 7 4 5 5 5
18 18 19 19 19 18 18 16 13 13 12 9 9 12 13 10 9 7 6 5 5 5
18 19 20 18 18 17 17 17 16 15 12 12 12 13 13 11 9 7 6 6 6 5
18 17 16 17 17 16 16 16 14 15 16 14 11 13 12 11 9 8 8 7 7 6
17 17 16 16 16 16 13 12 13 14 16 14 14 12 13 11 10 9 8 9 8 7
18 18 17 17 18 16 15 15 14 16 16 15 12 14 14 11 9 9 9 10 10 8
19 20 19 19 19 17 16 16 19 17 17 15 14 16 14 12 9 11 12 11 10 9
22 22 22 22 21 19 17 18 17 18 18 14 14 18 18 13 11 12 12 12 11 10
24 22 22 21 19 17 18 17 15 15 17 17 18 22 19 15 11 13 13 12 10 11
29 25 22 19 17 16 14 14 15 15 14 18 20 23 20 19 15 13 14 12 11 10
Wind_Direction
218 218 218 219 211 217 216 221 229 236 219 217 226 232 234 248 257 226 170 205 159 199
215 215 217 215 211 219 224 222 228 230 218 208 223 224 229 234 238 194 207 233 231 189
209 212 215 217 216 214 215 215 216 223 208 201 223 213 226 227 199 189 195 196 215 193
202 207 211 214 214 211 212 209 209 198 200 207 208 211 207 193 188 191 181 187 184 153
201 203 209 212 218 213 216 218 211 211 222 221 207 191 183 181 188 188 178 180 159 125
195 198 205 206 211 213 215 217 213 215 215 221 199 182 180 184 181 181 168 164 154 145
192 199 200 197 199 203 209 209 212 212 207 196 176 179 182 182 178 171 167 162 150 150
186 189 192 192 197 197 202 206 212 201 195 189 184 181 181 181 179 169 164 154 148 155
177 184 189 188 186 185 187 195 195 185 187 190 186 193 185 183 176 169 160 148 152 153
176 181 187 184 182 179 185 189 183 185 191 189 200 187 184 182 169 164 159 155 150 144
180 185 186 184 186 183 184 189 191 195 195 193 189 187 184 181 174 159 158 158 155 149
186 184 186 190 189 188 187 192 196 194 196 193 194 193 189 180 165 160 165 167 164 154
190 187 194 197 194 190 200 198 194 189 198 206 200 195 191 188 175 170 175 179 187 178
198 190 197 200 195 190 191 193 195 194 197 206 204 201 199 198 193 188 186 192 201 203
Height
822 825 828 830 832 834 835 836 837 839 841 843 845 846 847 848 849 850 851 852 852 853
818 821 824 826 828 831 832 834 835 837 839 840 842 844 845 846 846 848 850 851 851 852
813 817 820 823 824 827 829 831 833 835 836 838 836 841 842 844 846 847 848 849 849 849
809 813 816 819 821 823 827 829 831 834 835 836 837 838 840 842 845 846 847 847 848 848
804 809 812 815 818 821 824 827 829 831 833 834 835 835 838 841 843 845 845 846 848 849
800 805 809 812 815 818 821 823 826 829 831 832 833 834 838 841 842 844 845 846 848 849
796 801 805 807 812 815 818 820 823 826 829 830 832 835 838 840 841 842 844 846 847 849
793 798 802 805 809 812 815 818 821 824 826 828 830 834 836 838 840 841 843 845 847 849
790 795 800 804 807 811 813 816 819 821 824 826 830 832 835 838 839 841 843 844 847 849
786 793 798 802 806 809 812 815 818 820 823 826 828 832 835 838 839 840 843 844 846 850
784 790 796 801 804 807 811 813 816 819 822 824 827 830 834 837 838 840 842 844 846 848
781 786 793 798 801 805 808 811 815 818 820 823 825 829 833 835 838 839 842 844 846 847
778 783 790 795 800 804 806 810 813 816 818 822 825 829 831 833 836 838 842 844 846 847
775 779 787 794 798 801 805 809 811 814 817 819 823 826 828 832 834 837 840 842 845 847